Вернуться в каталог

ATLAS 5 CENTAUR DEB

LostHEO
NORAD 43966·DEBRIS·🇺🇸 United States

Запущен Sep 17, 2014 с Cape Canaveral Space Force Station

Loading…

Ближайшие Пролёты (ближайшие 24 часа)

TLE

УстаревшееSource: Space-Track

Эпоха: Feb 14, 2025, 12:25 UTC

1 43966U 14055V   25045.51738253 -.00000021  00000-0  00000-0 0  9997
2 43966  19.4937 182.2211 5157195  95.9599 322.3502  1.83013172 43122

Отслеживайте ATLAS 5 CENTAUR DEB в реальном времени с AllMySat

Download on the App Store